STARLINK-30262

decayed
NORAD ID: 57535 Int'l Des: 2023-115 Owner: SPXS Country: US Constellation: starlink
LEOCIRCULAR
Group

About STARLINK-30262

Description loading...

Altitude History

Altitude vs Time

uPlot chart will show altitude changes over time

Two-Line Element Set

1 57535U 23115Q 25204.45895414 .44093982 92364-5 48326-2 0 9993
2 57535 42.9766 343.4976 0005643 281.3965 138.4460 16.36224002111037
Epoch: Jul 23, 2025 • Age: 1377 hours

Current Status

Position data unavailable
Launch Date Aug 8, 2023
Age 2.1 years
Decay Date Jul 23, 2025
Type internet

Technical Details

Classification Payload
Mass 730.00 kg
Dry Mass 700.00 kg
Total Mass 730.00 kg
Length 0.30 m
Diameter 4.10 m
Span 29.00 m
Shape Box + pan
Manufacturer SPXS
Bus Type Starlink V2M
Phase Status Unknown Transfer Status
Owner/State SPXS/US

Large Constellations

Loading constellations...